Simultaneous Nadir Overpasses (SNOs) Predictions

Prediction of SNOs between METOP-B and NOAA-19 Satellite Orbit:

Table of predicted SNOs for the next 14.0 days since TLE Epoch: 6/12/2021
Index Date (METOP-B) Time (METOP-B) Lat,Lon (METOP-B) SZA (METOP-B ) Date (NOAA-19) Time (NOAA-19) Lat,Lon (NOAA-19) SZA (NOAA-19 ) Distance(km) Time Diff (sec)
1 06/22/2021 09:15:24 80.54, 70.01 58.29 06/22/2021 09:14:24 80.54, 70.08 58.27 1.29 60
2 06/22/2021 10:06:06 -80.54,-122.75 121.73 06/22/2021 10:05:22 -80.55,-122.89 121.74 2.83 44
3 06/22/2021 10:56:46 80.53, 44.55 58.27 06/22/2021 10:56:24 80.53, 44.69 58.28 2.65 22
4 06/22/2021 11:47:28 -80.53,-148.22 121.75 06/22/2021 11:47:22 -80.54,-148.27 121.74 1.99 6
5 06/22/2021 12:38:07 80.55, 19.41 58.30 06/22/2021 12:38:24 80.53, 19.30 58.28 2.97 17
6 06/22/2021 13:28:50 -80.52,-173.69 121.76 06/22/2021 13:29:22 -80.54,-173.66 121.73 2.25 32
7 06/22/2021 14:19:29 80.54, -6.06 58.28 06/22/2021 14:20:24 80.52, -6.09 58.29 1.83 55



Historial Predications of SNOs between METOP-B and NOAA-19
